BAW49 EGLL-KSEA

Flight info

Callsign BAW49
Flight time N/A
Altitude 34000
Route CPT DCT DIDZA N14 OKSAW DCT BIBPE DCT OKTAD DCT MEDOG DCT VATRY DCT PIKIL/M084F340 DCT 5730N02000W 5930N03000W 61N040W 62N050W DCT KETLA DCT BERUS/N0481F340 DCT TEFFO/N0488F360 DCT BODRA DCT 62N090W 60N104W DCT BEJAW/N0478F380 DCT 55N118W/N0470F370 DCT YDC/N0470F380 DCT JAKSN GLASR3
Aircraft B77W/H-SDE1E2E3FGHIJ2J3J4J5M1RWXY/LB1D1

Departure

Time 2026-05-07 23:35
Airport London Heathrow Airport (EGLL)

Arrival

Time N/A
Airport Seattle–Tacoma International Airport (KSEA)
Time Latitude Longitude Altitude Speed Heading
2026-05-07 23:02 51.47315 -0.47734 93 ft 0 kts 89°
2026-05-07 23:22 51.47315 -0.47738 91 ft 2 kts 89°
2026-05-07 23:22 51.47315 -0.47780 95 ft 4 kts 90°
2026-05-07 23:23 51.47315 -0.47818 91 ft 4 kts 93°
2026-05-07 23:23 51.47319 -0.47853 92 ft 4 kts 123°
2026-05-07 23:23 51.47331 -0.47873 93 ft 4 kts 165°
2026-05-07 23:23 51.47355 -0.47877 92 ft 4 kts 183°
2026-05-07 23:24 51.47375 -0.47875 91 ft 1 kts 180°
2026-05-07 23:24 51.47378 -0.47875 91 ft 5 kts 180°
2026-05-07 23:25 51.47379 -0.47875 91 ft 0 kts 180°
2026-05-07 23:27 51.47377 -0.47875 91 ft 1 kts 180°
2026-05-07 23:27 51.47369 -0.47875 91 ft 2 kts 180°
2026-05-07 23:27 51.47352 -0.47875 93 ft 3 kts 180°
2026-05-07 23:28 51.47329 -0.47875 93 ft 4 kts 180°
2026-05-07 23:28 51.47298 -0.47875 92 ft 5 kts 180°
2026-05-07 23:28 51.47261 -0.47874 93 ft 6 kts 180°
2026-05-07 23:28 51.47219 -0.47874 94 ft 7 kts 180°
2026-05-07 23:29 51.47171 -0.47873 91 ft 7 kts 180°
2026-05-07 23:29 51.47116 -0.47873 91 ft 8 kts 180°
2026-05-07 23:29 51.47058 -0.47872 91 ft 9 kts 180°
2026-05-07 23:29 51.46994 -0.47872 91 ft 9 kts 180°
2026-05-07 23:30 51.46925 -0.47871 91 ft 10 kts 180°
2026-05-07 23:30 51.46854 -0.47870 91 ft 11 kts 180°
2026-05-07 23:30 51.46777 -0.47870 91 ft 11 kts 180°
2026-05-07 23:30 51.46697 -0.47877 91 ft 12 kts 194°
2026-05-07 23:31 51.46653 -0.47980 95 ft 12 kts 262°
2026-05-07 23:31 51.46648 -0.48113 95 ft 12 kts 268°
2026-05-07 23:31 51.46645 -0.48246 95 ft 12 kts 268°
2026-05-07 23:31 51.46648 -0.48378 95 ft 12 kts 275°
2026-05-07 23:32 51.46652 -0.48511 92 ft 12 kts 270°
2026-05-07 23:32 51.46650 -0.48644 94 ft 12 kts 268°
2026-05-07 23:32 51.46627 -0.48739 96 ft 4 kts 220°
2026-05-07 23:32 51.46602 -0.48759 96 ft 4 kts 201°
2026-05-07 23:33 51.46575 -0.48772 93 ft 4 kts 194°
2026-05-07 23:33 51.46547 -0.48778 94 ft 4 kts 184°
2026-05-07 23:33 51.46519 -0.48771 94 ft 4 kts 161°
2026-05-07 23:33 51.46502 -0.48753 96 ft 0 kts 140°
2026-05-07 23:34 51.46489 -0.48711 96 ft 9 kts 106°
2026-05-07 23:34 51.46481 -0.48540 94 ft 24 kts 92°
2026-05-07 23:34 51.46481 -0.48131 92 ft 52 kts 89°
2026-05-07 23:35 51.46484 -0.47129 95 ft 125 kts 90°
2026-05-07 23:35 51.46485 -0.45418 96 ft 180 kts 90°
2026-05-07 23:35 51.46472 -0.43371 697 ft 174 kts 91°
2026-05-07 23:35 51.46448 -0.41510 1555 ft 165 kts 91°
2026-05-07 23:36 51.46448 -0.39649 1872 ft 172 kts 90°
2026-05-07 23:36 51.46467 -0.37689 2223 ft 177 kts 89°
2026-05-07 23:36 51.46507 -0.35685 2508 ft 184 kts 88°
2026-05-07 23:36 51.46568 -0.33643 2971 ft 183 kts 88°
2026-05-07 23:37 51.46647 -0.31570 3325 ft 189 kts 86°
2026-05-07 23:37 51.46663 -0.29442 3545 ft 197 kts 106°
2026-05-07 23:37 51.45851 -0.27674 3650 ft 208 kts 152°
2026-05-07 23:37 51.44396 -0.27342 3777 ft 225 kts 194°
2026-05-07 23:38 51.43054 -0.28753 3919 ft 247 kts 234°
2026-05-07 23:38 51.42518 -0.31413 4188 ft 260 kts 273°
2026-05-07 23:38 51.42828 -0.34296 4614 ft 266 kts 279°
2026-05-07 23:38 51.43054 -0.37262 5176 ft 270 kts 274°
2026-05-07 23:39 51.43205 -0.40224 5839 ft 268 kts 279°
2026-05-07 23:39 51.43640 -0.43155 6427 ft 272 kts 287°
2026-05-07 23:39 51.44220 -0.46042 7122 ft 271 kts 288°
2026-05-07 23:39 51.44829 -0.48930 7813 ft 272 kts 288°
2026-05-07 23:40 51.45439 -0.51822 8465 ft 273 kts 288°
2026-05-07 23:40 51.46042 -0.54706 9143 ft 273 kts 288°
2026-05-07 23:40 51.46580 -0.57298 9741 ft 274 kts 287°
2026-05-07 23:40 51.47177 -0.60201 10324 ft 277 kts 287°
2026-05-07 23:41 51.47792 -0.63218 10557 ft 294 kts 287°
2026-05-07 23:41 51.48447 -0.66449 10718 ft 314 kts 287°
2026-05-07 23:41 51.49143 -0.69902 10884 ft 335 kts 287°
2026-05-07 23:41 51.49879 -0.73562 11131 ft 353 kts 287°
2026-05-07 23:42 51.50640 -0.77359 11642 ft 363 kts 287°
2026-05-07 23:42 51.51421 -0.81262 12312 ft 370 kts 287°
2026-05-07 23:42 51.52209 -0.85212 13123 ft 374 kts 287°
2026-05-07 23:42 51.53006 -0.89216 13926 ft 379 kts 287°
2026-05-07 23:43 51.53701 -0.92717 14522 ft 383 kts 286°
2026-05-07 23:43 51.54511 -0.96809 15240 ft 387 kts 286°
2026-05-07 23:43 51.55329 -1.00947 15975 ft 391 kts 286°
2026-05-07 23:43 51.56156 -1.05141 16689 ft 395 kts 286°
2026-05-07 23:44 51.56989 -1.09377 17394 ft 400 kts 286°
2026-05-07 23:44 51.57829 -1.13655 18089 ft 404 kts 286°
2026-05-07 23:44 51.58677 -1.17984 18734 ft 408 kts 286°
2026-05-07 23:44 51.59534 -1.22366 19353 ft 412 kts 286°
2026-05-07 23:45 51.60395 -1.26781 19969 ft 415 kts 286°
2026-05-07 23:45 51.61261 -1.31237 20578 ft 419 kts 286°
2026-05-07 23:45 51.62132 -1.35725 21164 ft 423 kts 286°
2026-05-07 23:45 51.63011 -1.40264 21756 ft 427 kts 285°
2026-05-07 23:46 51.63900 -1.44863 22335 ft 430 kts 285°
2026-05-07 23:46 51.64788 -1.49473 22904 ft 434 kts 285°
2026-05-07 23:46 51.65683 -1.54127 23465 ft 438 kts 285°
2026-05-07 23:46 51.66587 -1.58842 23940 ft 441 kts 285°
2026-05-07 23:47 51.67484 -1.63532 24435 ft 444 kts 285°
2026-05-07 23:47 51.68394 -1.68303 24897 ft 446 kts 285°
2026-05-07 23:47 51.69308 -1.73103 25353 ft 449 kts 285°
2026-05-07 23:47 51.70224 -1.77919 25798 ft 452 kts 285°
2026-05-07 23:48 51.71148 -1.82802 26227 ft 455 kts 285°
2026-05-07 23:48 51.72016 -1.87715 26659 ft 457 kts 283°
2026-05-07 23:48 51.72779 -1.92680 27060 ft 460 kts 282°
2026-05-07 23:48 51.73519 -1.97723 27486 ft 462 kts 282°
2026-05-07 23:49 51.74256 -2.02809 27887 ft 465 kts 281°
2026-05-07 23:49 51.74997 -2.07908 28266 ft 468 kts 282°
2026-05-07 23:49 51.75746 -2.13034 28632 ft 470 kts 282°
2026-05-07 23:49 51.76499 -2.18165 29003 ft 473 kts 282°
2026-05-07 23:50 51.77262 -2.23365 29346 ft 475 kts 282°
2026-05-07 23:50 51.78022 -2.28546 29743 ft 475 kts 282°
2026-05-07 23:50 51.78782 -2.33743 30220 ft 474 kts 281°
2026-05-07 23:50 51.79534 -2.38909 30646 ft 472 kts 281°
2026-05-07 23:51 51.80283 -2.44071 31043 ft 471 kts 281°
2026-05-07 23:51 51.81023 -2.49192 31408 ft 470 kts 281°
2026-05-07 23:51 51.81766 -2.54349 31787 ft 469 kts 281°
2026-05-07 23:51 51.82004 -2.56017 31910 ft 469 kts 281°
2026-05-07 23:52 51.82614 -2.60412 32242 ft 467 kts 281°
2026-05-07 23:52 51.83305 -2.65521 32631 ft 466 kts 280°
2026-05-07 23:52 51.83991 -2.70657 32991 ft 465 kts 280°
2026-05-07 23:53 51.84446 -2.74079 33236 ft 464 kts 280°
2026-05-07 23:53 51.85348 -2.80851 33682 ft 463 kts 280°
2026-05-07 23:53 51.85801 -2.84259 33912 ft 462 kts 280°
2026-05-07 23:53 51.86484 -2.89388 34046 ft 465 kts 280°
2026-05-07 23:54 51.87840 -2.99626 34062 ft 464 kts 280°
2026-05-07 23:54 51.89167 -3.09697 34070 ft 459 kts 280°
2026-05-07 23:55 51.90494 -3.19852 34076 ft 458 kts 280°
2026-05-07 23:55 51.91796 -3.29897 34058 ft 458 kts 280°
2026-05-07 23:56 51.93101 -3.40018 34050 ft 459 kts 280°
2026-05-07 23:56 51.94421 -3.50150 34050 ft 460 kts 282°
2026-05-07 23:57 51.96550 -3.59946 34053 ft 463 kts 294°
2026-05-07 23:57 51.99515 -3.69225 34041 ft 464 kts 296°
2026-05-07 23:58 52.02516 -3.78445 34047 ft 464 kts 295°
2026-05-07 23:58 52.05502 -3.87737 34045 ft 464 kts 295°
2026-05-07 23:59 52.08458 -3.97037 34046 ft 464 kts 295°
2026-05-07 23:59 52.11406 -4.06371 34041 ft 463 kts 295°
2026-05-08 00:00 52.14339 -4.15687 34041 ft 461 kts 295°
2026-05-08 00:00 52.17256 -4.24987 34040 ft 460 kts 295°
2026-05-08 00:01 52.20156 -4.34270 34039 ft 459 kts 295°
2026-05-08 00:01 52.23048 -4.43557 34044 ft 458 kts 295°
2026-05-08 00:02 52.25921 -4.52822 34036 ft 457 kts 295°
2026-05-08 00:02 52.28770 -4.62045 34037 ft 457 kts 295°
2026-05-08 00:03 52.31623 -4.71314 34043 ft 456 kts 295°
2026-05-08 00:03 52.34467 -4.80592 34046 ft 456 kts 295°
2026-05-08 00:04 52.37309 -4.89899 34048 ft 457 kts 295°
2026-05-08 00:04 52.40142 -4.99210 34034 ft 457 kts 295°
2026-05-08 00:05 52.42968 -5.08537 34032 ft 456 kts 295°
2026-05-08 00:05 52.45785 -5.17868 34030 ft 456 kts 294°
2026-05-08 00:06 52.48589 -5.27194 34043 ft 456 kts 294°
2026-05-08 00:06 52.51369 -5.36472 34041 ft 455 kts 294°
2026-05-08 00:07 52.54153 -5.45800 34033 ft 454 kts 294°
2026-05-08 00:07 52.57367 -5.54750 34032 ft 456 kts 303°
2026-05-08 00:08 52.61067 -5.63184 34024 ft 456 kts 304°
2026-05-08 00:08 52.64782 -5.71650 34025 ft 455 kts 303°
2026-05-08 00:09 52.68470 -5.80146 34025 ft 455 kts 303°
2026-05-08 00:09 52.72136 -5.88659 34023 ft 455 kts 303°
2026-05-08 00:10 52.75790 -5.97183 34018 ft 455 kts 302°
2026-05-08 00:10 52.79415 -6.05669 34023 ft 455 kts 302°
2026-05-08 00:11 52.83064 -6.14237 34022 ft 455 kts 302°
2026-05-08 00:11 52.86701 -6.22803 34022 ft 455 kts 302°
2026-05-08 00:12 52.90343 -6.31413 34019 ft 455 kts 302°
2026-05-08 00:12 52.93963 -6.39997 34017 ft 454 kts 302°
2026-05-08 00:13 52.97574 -6.48590 34015 ft 454 kts 302°
2026-05-08 00:13 53.01151 -6.57132 34007 ft 454 kts 302°
2026-05-08 00:14 53.04744 -6.65738 34004 ft 453 kts 301°
2026-05-08 00:14 53.08330 -6.74358 34010 ft 452 kts 301°
2026-05-08 00:15 53.11900 -6.82970 34010 ft 451 kts 301°
2026-05-08 00:15 53.15452 -6.91568 34004 ft 450 kts 301°
2026-05-08 00:16 53.18990 -7.00161 34005 ft 450 kts 301°
2026-05-08 00:16 53.22535 -7.08798 34005 ft 450 kts 301°
2026-05-08 00:17 53.26054 -7.17402 34001 ft 449 kts 301°
2026-05-08 00:17 53.29554 -7.25991 34002 ft 449 kts 300°
2026-05-08 00:18 53.33064 -7.34632 33998 ft 449 kts 300°
2026-05-08 00:18 53.36570 -7.43295 33998 ft 449 kts 300°
2026-05-08 00:19 53.40067 -7.51961 34002 ft 449 kts 300°
2026-05-08 00:19 53.43559 -7.60649 33998 ft 449 kts 300°
2026-05-08 00:20 53.47046 -7.69351 34009 ft 449 kts 300°
2026-05-08 00:20 53.50523 -7.78059 34008 ft 449 kts 300°
2026-05-08 00:21 53.53995 -7.86786 33997 ft 448 kts 299°
2026-05-08 00:21 53.57464 -7.95536 33998 ft 448 kts 299°
2026-05-08 00:22 53.60893 -8.04214 33995 ft 449 kts 299°
2026-05-08 00:22 53.64344 -8.12978 33999 ft 449 kts 299°
2026-05-08 00:23 53.67791 -8.21763 34003 ft 449 kts 299°
2026-05-08 00:23 53.71233 -8.30567 34010 ft 449 kts 298°
2026-05-08 00:24 53.74672 -8.39394 34009 ft 450 kts 298°
2026-05-08 00:24 53.78109 -8.48247 34007 ft 451 kts 298°
2026-05-08 00:25 53.81544 -8.57125 34004 ft 451 kts 298°
2026-05-08 00:25 53.84957 -8.65976 34007 ft 451 kts 298°
2026-05-08 00:26 53.88405 -8.74954 34008 ft 452 kts 298°
2026-05-08 00:26 53.91813 -8.83857 34009 ft 452 kts 298°
2026-05-08 00:27 53.95236 -8.92831 34009 ft 453 kts 298°
2026-05-08 00:27 53.98657 -9.01835 33998 ft 453 kts 298°
2026-05-08 00:28 54.02077 -9.10865 34005 ft 454 kts 297°
2026-05-08 00:28 54.05464 -9.19843 34018 ft 454 kts 297°
2026-05-08 00:29 54.08869 -9.28900 34013 ft 454 kts 297°
2026-05-08 00:29 54.12269 -9.37974 34017 ft 454 kts 297°
2026-05-08 00:30 54.15664 -9.47073 34014 ft 454 kts 297°
2026-05-08 00:30 54.19053 -9.56187 34020 ft 455 kts 297°
2026-05-08 00:31 54.22438 -9.65326 34020 ft 455 kts 297°
2026-05-08 00:31 54.25819 -9.74484 34020 ft 455 kts 297°
2026-05-08 00:32 54.29172 -9.83602 34021 ft 455 kts 297°
2026-05-08 00:32 54.32540 -9.92794 34017 ft 455 kts 297°
2026-05-08 00:33 54.35903 -10.02007 34019 ft 455 kts 297°
2026-05-08 00:33 54.39260 -10.11236 34018 ft 455 kts 297°
2026-05-08 00:34 54.42605 -10.20470 34018 ft 455 kts 296°
2026-05-08 00:34 54.45923 -10.29661 34023 ft 455 kts 296°
2026-05-08 00:35 54.49263 -10.38948 34023 ft 456 kts 296°
2026-05-08 00:35 54.52590 -10.48236 34023 ft 456 kts 296°
2026-05-08 00:36 54.55912 -10.57543 34024 ft 456 kts 296°
2026-05-08 00:36 54.59226 -10.66864 34028 ft 457 kts 296°
2026-05-08 00:37 54.62548 -10.76243 34023 ft 457 kts 296°
2026-05-08 00:38 54.67490 -10.90259 34028 ft 458 kts 296°
2026-05-08 00:38 54.70797 -10.99686 34033 ft 458 kts 296°
2026-05-08 00:39 54.74093 -11.09116 34027 ft 458 kts 296°
2026-05-08 00:39 54.77383 -11.18563 34031 ft 458 kts 296°
2026-05-08 00:40 54.80121 -11.26454 34038 ft 458 kts 296°
2026-05-08 00:40 54.83403 -11.35950 34021 ft 458 kts 296°
2026-05-08 00:41 54.86652 -11.45383 34027 ft 458 kts 296°
2026-05-08 00:41 54.89912 -11.54886 34032 ft 458 kts 296°
2026-05-08 00:42 54.93162 -11.64396 34031 ft 457 kts 296°
2026-05-08 00:42 54.96406 -11.73928 34033 ft 457 kts 296°
2026-05-08 00:43 54.99645 -11.83481 34032 ft 457 kts 296°
2026-05-08 00:43 55.02869 -11.93025 34032 ft 457 kts 296°
2026-05-08 00:44 55.06080 -12.02571 34034 ft 456 kts 296°
2026-05-08 00:44 55.09261 -12.12065 34031 ft 456 kts 296°
2026-05-08 00:45 55.12457 -12.21643 34031 ft 456 kts 295°
2026-05-08 00:45 55.15638 -12.31212 34028 ft 455 kts 295°
2026-05-08 00:46 55.18816 -12.40807 34034 ft 455 kts 295°
2026-05-08 00:46 55.21988 -12.50426 34033 ft 455 kts 295°
2026-05-08 00:47 55.25152 -12.60059 34035 ft 456 kts 295°
2026-05-08 00:47 55.28310 -12.69708 34036 ft 456 kts 295°
2026-05-08 00:48 55.31465 -12.79391 34036 ft 457 kts 295°
2026-05-08 00:48 55.34618 -12.89104 34038 ft 458 kts 295°
2026-05-08 00:49 55.37743 -12.98771 34034 ft 458 kts 295°
2026-05-08 00:49 55.40887 -13.08536 34023 ft 459 kts 295°
2026-05-08 00:50 55.44030 -13.18338 34046 ft 459 kts 295°
2026-05-08 00:50 55.47165 -13.28154 34051 ft 460 kts 295°
2026-05-08 00:51 55.50298 -13.38005 34037 ft 460 kts 295°
2026-05-08 00:51 55.53428 -13.47886 34044 ft 461 kts 295°
2026-05-08 00:52 55.56532 -13.57725 34044 ft 461 kts 295°
2026-05-08 00:52 55.59647 -13.67642 34044 ft 462 kts 295°
2026-05-08 00:53 55.62758 -13.77587 34048 ft 462 kts 295°
2026-05-08 00:53 55.65866 -13.87563 34048 ft 462 kts 295°
2026-05-08 00:54 55.68964 -13.97552 34053 ft 463 kts 295°
2026-05-08 00:54 55.72061 -14.07576 34056 ft 463 kts 295°
2026-05-08 00:55 55.75132 -14.17561 34055 ft 464 kts 295°
2026-05-08 00:55 55.78218 -14.27634 34058 ft 464 kts 295°
2026-05-08 00:56 55.81301 -14.37743 34060 ft 464 kts 295°
2026-05-08 00:56 55.84374 -14.47860 34062 ft 465 kts 295°
2026-05-08 00:57 55.87439 -14.57995 34063 ft 465 kts 295°
2026-05-08 00:57 55.90486 -14.68115 34062 ft 465 kts 295°
2026-05-08 00:58 55.93542 -14.78308 34062 ft 466 kts 295°
2026-05-08 00:58 55.96588 -14.88513 34066 ft 466 kts 295°
2026-05-08 00:59 55.99634 -14.98756 34071 ft 466 kts 295°
2026-05-08 00:59 56.02790 -15.08811 34071 ft 467 kts 298°
2026-05-08 01:00 56.06152 -15.18786 34073 ft 468 kts 298°
2026-05-08 01:00 56.09507 -15.28778 34073 ft 467 kts 298°
2026-05-08 01:01 56.12820 -15.38811 34075 ft 467 kts 298°
2026-05-08 01:01 56.16093 -15.48821 34077 ft 467 kts 298°
2026-05-08 01:02 56.19373 -15.58909 34083 ft 467 kts 298°
2026-05-08 01:02 56.22637 -15.68984 34079 ft 467 kts 298°
2026-05-08 01:03 56.25897 -15.79089 34087 ft 466 kts 298°
2026-05-08 01:03 56.29144 -15.89193 34086 ft 466 kts 298°
2026-05-08 01:04 56.32380 -15.99303 34092 ft 466 kts 298°
2026-05-08 01:04 56.35607 -16.09434 34095 ft 465 kts 297°
2026-05-08 01:05 56.38800 -16.19496 34092 ft 465 kts 298°
2026-05-08 01:05 56.42004 -16.29637 34096 ft 465 kts 298°
2026-05-08 01:06 56.45197 -16.39788 34099 ft 465 kts 298°
2026-05-08 01:06 56.48394 -16.49995 34100 ft 465 kts 298°
2026-05-08 01:07 56.51560 -16.60146 34104 ft 466 kts 298°
2026-05-08 01:07 56.54741 -16.70388 34104 ft 466 kts 298°
2026-05-08 01:08 56.57915 -16.80651 34111 ft 466 kts 298°
2026-05-08 01:08 56.61082 -16.90937 34112 ft 466 kts 298°
2026-05-08 01:09 56.64238 -17.01235 34116 ft 466 kts 298°
2026-05-08 01:09 56.67360 -17.11463 34120 ft 465 kts 298°
2026-05-08 01:10 56.70495 -17.21779 34121 ft 465 kts 298°
2026-05-08 01:10 56.73614 -17.32090 34123 ft 465 kts 297°
2026-05-08 01:11 56.76728 -17.42428 34129 ft 465 kts 298°
2026-05-08 01:11 56.79837 -17.52793 34132 ft 465 kts 298°
2026-05-08 01:12 56.82935 -17.63165 34133 ft 465 kts 297°
2026-05-08 01:12 56.86007 -17.73506 34134 ft 466 kts 298°
2026-05-08 01:13 56.89104 -17.83970 34149 ft 470 kts 298°
2026-05-08 01:13 56.92211 -17.94517 34143 ft 472 kts 297°
2026-05-08 01:14 56.95325 -18.05135 34138 ft 470 kts 297°
2026-05-08 01:14 56.98396 -18.15653 34147 ft 468 kts 297°
2026-05-08 01:15 57.01477 -18.26256 34161 ft 473 kts 297°
2026-05-08 01:15 57.04540 -18.36843 34133 ft 469 kts 297°
2026-05-08 01:16 57.07576 -18.47386 34155 ft 466 kts 297°
2026-05-08 01:16 57.10597 -18.57921 34138 ft 464 kts 297°
2026-05-08 01:17 57.13583 -18.68385 34155 ft 461 kts 297°
2026-05-08 01:17 57.16573 -18.78912 34170 ft 467 kts 297°
2026-05-08 01:18 57.19591 -18.89587 34174 ft 474 kts 297°
2026-05-08 01:18 57.22621 -19.00350 34164 ft 468 kts 297°
2026-05-08 01:19 57.25592 -19.10955 34173 ft 463 kts 297°
2026-05-08 01:19 57.28515 -19.21438 34154 ft 461 kts 297°
2026-05-08 01:20 57.31446 -19.31997 34172 ft 461 kts 297°
2026-05-08 01:20 57.34374 -19.42594 34168 ft 462 kts 297°
2026-05-08 01:21 57.37297 -19.53221 34176 ft 463 kts 297°
2026-05-08 01:21 57.40219 -19.63897 34176 ft 464 kts 297°
2026-05-08 01:22 57.43134 -19.74595 34179 ft 465 kts 297°
2026-05-08 01:22 57.46025 -19.85257 34184 ft 465 kts 297°
2026-05-08 01:23 57.48931 -19.96016 34187 ft 465 kts 297°
2026-05-08 01:23 57.51783 -20.06842 34195 ft 465 kts 296°
2026-05-08 01:24 57.54510 -20.17763 34193 ft 465 kts 296°
2026-05-08 01:24 57.57218 -20.28723 34198 ft 466 kts 296°
2026-05-08 01:25 57.59918 -20.39642 34200 ft 466 kts 296°
2026-05-08 01:25 57.62636 -20.50637 34203 ft 467 kts 296°
2026-05-08 01:26 57.65348 -20.61656 34204 ft 467 kts 296°
2026-05-08 01:26 57.68056 -20.72714 34205 ft 467 kts 296°
2026-05-08 01:27 57.70297 -20.81909 34206 ft 468 kts 296°
2026-05-08 01:27 57.73424 -20.94809 34211 ft 468 kts 296°
2026-05-08 01:28 57.76108 -21.05937 34217 ft 468 kts 296°
2026-05-08 01:28 57.78343 -21.15254 34215 ft 468 kts 296°
2026-05-08 01:29 57.80996 -21.26359 34221 ft 468 kts 296°
2026-05-08 01:29 57.83651 -21.37530 34220 ft 468 kts 296°
2026-05-08 01:30 57.86296 -21.48719 34226 ft 468 kts 296°
2026-05-08 01:30 57.88928 -21.59913 34225 ft 468 kts 296°
2026-05-08 01:31 57.91547 -21.71105 34234 ft 468 kts 296°
2026-05-08 01:31 57.94140 -21.82249 34232 ft 468 kts 296°
2026-05-08 01:32 57.96741 -21.93482 34233 ft 468 kts 296°
2026-05-08 01:32 57.99334 -22.04740 34238 ft 468 kts 296°
2026-05-08 01:33 58.01914 -22.16000 34241 ft 468 kts 296°
2026-05-08 01:33 58.04484 -22.27278 34243 ft 467 kts 296°
2026-05-08 01:34 58.07042 -22.38563 34243 ft 467 kts 296°
2026-05-08 01:34 58.09591 -22.49869 34243 ft 467 kts 296°
2026-05-08 01:35 58.12128 -22.61184 34249 ft 467 kts 296°
2026-05-08 01:35 58.14639 -22.72442 34251 ft 467 kts 296°
2026-05-08 01:36 58.17159 -22.83799 34252 ft 467 kts 296°
2026-05-08 01:36 58.19668 -22.95171 34259 ft 467 kts 296°
2026-05-08 01:37 58.22163 -23.06541 34256 ft 467 kts 296°
2026-05-08 01:37 58.24648 -23.17926 34261 ft 467 kts 296°
2026-05-08 01:38 58.27124 -23.29331 34260 ft 467 kts 296°
2026-05-08 01:38 58.29571 -23.40667 34263 ft 466 kts 296°
2026-05-08 01:39 58.32022 -23.52084 34266 ft 466 kts 296°
2026-05-08 01:39 58.34463 -23.63517 34270 ft 466 kts 296°
2026-05-08 01:40 58.36893 -23.74961 34269 ft 466 kts 296°
2026-05-08 01:40 58.39310 -23.86411 34266 ft 465 kts 296°
2026-05-08 01:41 58.41716 -23.97870 34280 ft 465 kts 296°
2026-05-08 01:41 58.44096 -24.09268 34279 ft 465 kts 296°
2026-05-08 01:42 58.46476 -24.20733 34279 ft 464 kts 296°
2026-05-08 01:42 58.48846 -24.32214 34284 ft 464 kts 296°
2026-05-08 01:43 58.51200 -24.43683 34285 ft 463 kts 296°
2026-05-08 01:43 58.53544 -24.55163 34293 ft 463 kts 296°
2026-05-08 01:44 58.55875 -24.66650 34296 ft 462 kts 296°
2026-05-08 01:44 58.58195 -24.78149 34296 ft 462 kts 296°
2026-05-08 01:45 58.60503 -24.89653 34297 ft 462 kts 296°
2026-05-08 01:45 58.62787 -25.01104 34301 ft 461 kts 296°
2026-05-08 01:46 58.65067 -25.12601 34303 ft 461 kts 296°
2026-05-08 01:46 58.67339 -25.24124 34309 ft 460 kts 296°
2026-05-08 01:47 58.69597 -25.35648 34310 ft 460 kts 296°
2026-05-08 01:47 58.71839 -25.47151 34312 ft 459 kts 296°
2026-05-08 01:48 58.75168 -25.64358 34325 ft 459 kts 297°
2026-05-08 01:48 58.77382 -25.75890 34321 ft 458 kts 297°
2026-05-08 01:49 58.79583 -25.87420 34324 ft 458 kts 297°
2026-05-08 01:49 58.81758 -25.98881 34329 ft 457 kts 297°
2026-05-08 01:50 58.83932 -26.10405 34326 ft 457 kts 297°
2026-05-08 01:50 58.86095 -26.21940 34330 ft 456 kts 297°
2026-05-08 01:51 58.88242 -26.33458 34336 ft 455 kts 297°
2026-05-08 01:51 58.90381 -26.45006 34337 ft 455 kts 297°
2026-05-08 01:52 58.92505 -26.56542 34340 ft 454 kts 297°
2026-05-08 01:52 58.94601 -26.67996 34342 ft 454 kts 297°
2026-05-08 01:53 58.96712 -26.79600 34346 ft 453 kts 297°
2026-05-08 01:53 58.98782 -26.91049 34351 ft 452 kts 297°
2026-05-08 01:54 59.00855 -27.02582 34352 ft 451 kts 297°
2026-05-08 01:54 59.02911 -27.14093 34350 ft 450 kts 298°
2026-05-08 01:55 59.04951 -27.25589 34351 ft 450 kts 298°
2026-05-08 01:55 59.06976 -27.37067 34354 ft 448 kts 298°
2026-05-08 01:56 59.08985 -27.48523 34370 ft 448 kts 298°
2026-05-08 01:56 59.10982 -27.59984 34361 ft 447 kts 298°
2026-05-08 01:57 59.12954 -27.71369 34367 ft 446 kts 298°
2026-05-08 01:57 59.14922 -27.82809 34363 ft 445 kts 298°
2026-05-08 01:58 59.16878 -27.94248 34367 ft 444 kts 298°
2026-05-08 01:58 59.18818 -28.05661 34371 ft 443 kts 298°
2026-05-08 01:59 59.20747 -28.17082 34372 ft 442 kts 298°
2026-05-08 01:59 59.22658 -28.28471 34370 ft 441 kts 298°
2026-05-08 02:00 59.24560 -28.39878 34377 ft 441 kts 298°
2026-05-08 02:00 59.26449 -28.51275 34385 ft 441 kts 298°
2026-05-08 02:01 59.28316 -28.62609 34385 ft 441 kts 298°
2026-05-08 02:01 59.30185 -28.74034 34388 ft 441 kts 298°
2026-05-08 02:02 59.32046 -28.85477 34391 ft 441 kts 298°
2026-05-08 02:02 59.33894 -28.96924 34400 ft 441 kts 298°
2026-05-08 02:03 59.35737 -29.08413 34391 ft 441 kts 297°
2026-05-08 02:03 59.37567 -29.19898 34395 ft 442 kts 297°
2026-05-08 02:04 59.39391 -29.31420 34396 ft 442 kts 297°
2026-05-08 02:04 59.41207 -29.42963 34401 ft 443 kts 297°
2026-05-08 02:05 59.43003 -29.54462 34402 ft 443 kts 296°
2026-05-08 02:05 59.44804 -29.66068 34410 ft 443 kts 296°
2026-05-08 02:06 59.46592 -29.77666 34402 ft 444 kts 296°
2026-05-08 02:06 59.48374 -29.89298 34405 ft 444 kts 296°
2026-05-08 02:07 59.50169 -30.00910 34401 ft 441 kts 298°
2026-05-08 02:07 59.52306 -30.12078 34409 ft 438 kts 300°
2026-05-08 02:08 59.54511 -30.23276 34430 ft 438 kts 300°
2026-05-08 02:08 59.56702 -30.34510 34424 ft 439 kts 299°
2026-05-08 02:09 59.58872 -30.45772 34423 ft 439 kts 299°
2026-05-08 02:09 59.61030 -30.57067 34423 ft 439 kts 298°
2026-05-08 02:10 59.63179 -30.68391 34415 ft 440 kts 298°
2026-05-08 02:10 59.65304 -30.79648 34418 ft 440 kts 298°
2026-05-08 02:11 59.67435 -30.90999 34424 ft 440 kts 298°
2026-05-08 02:11 59.69561 -31.02392 34422 ft 441 kts 297°
2026-05-08 02:12 59.71665 -31.13734 34422 ft 441 kts 297°
2026-05-08 02:12 59.73773 -31.25166 34427 ft 442 kts 297°
2026-05-08 02:13 59.75874 -31.36628 34426 ft 442 kts 297°
2026-05-08 02:13 59.77964 -31.48101 34423 ft 442 kts 297°
2026-05-08 02:14 59.80050 -31.59615 34422 ft 443 kts 296°
2026-05-08 02:14 59.82122 -31.71127 34436 ft 443 kts 296°
2026-05-08 02:15 59.84187 -31.82668 34434 ft 443 kts 296°
2026-05-08 02:15 59.86240 -31.94218 34426 ft 443 kts 295°
2026-05-08 02:16 59.87942 -32.03845 34427 ft 443 kts 295°
2026-05-08 02:16 59.90309 -32.17312 34428 ft 443 kts 295°
2026-05-08 02:17 59.92335 -32.28920 34434 ft 443 kts 295°
2026-05-08 02:17 59.94022 -32.38642 34442 ft 443 kts 295°
2026-05-08 02:18 59.96031 -32.50290 34438 ft 443 kts 294°
2026-05-08 02:18 59.98028 -32.61937 34434 ft 443 kts 294°
2026-05-08 02:19 60.00003 -32.73529 34434 ft 443 kts 294°
2026-05-08 02:19 60.01982 -32.85222 34431 ft 443 kts 294°
2026-05-08 02:20 60.03963 -32.96999 34432 ft 444 kts 293°
2026-05-08 02:20 60.05906 -33.08623 34433 ft 444 kts 293°
2026-05-08 02:21 60.07855 -33.20360 34433 ft 444 kts 292°
2026-05-08 02:21 60.09794 -33.32115 34430 ft 444 kts 292°
2026-05-08 02:22 60.11723 -33.43886 34427 ft 444 kts 292°
2026-05-08 02:22 60.13641 -33.55670 34427 ft 444 kts 292°
2026-05-08 02:23 60.15549 -33.67469 34427 ft 445 kts 292°
2026-05-08 02:23 60.17450 -33.79304 34427 ft 445 kts 291°
2026-05-08 02:24 60.19338 -33.91137 34428 ft 445 kts 291°
2026-05-08 02:24 60.21218 -34.03000 34424 ft 445 kts 291°
2026-05-08 02:25 60.23074 -34.14794 34424 ft 445 kts 291°
2026-05-08 02:25 60.24936 -34.26700 34424 ft 446 kts 290°
2026-05-08 02:26 60.26788 -34.38626 34419 ft 446 kts 290°
2026-05-08 02:26 60.28632 -34.50589 34419 ft 446 kts 290°
2026-05-08 02:27 60.30465 -34.62558 34415 ft 447 kts 290°
2026-05-08 02:27 60.32289 -34.74554 34411 ft 447 kts 290°
2026-05-08 02:28 60.34105 -34.86577 34403 ft 448 kts 289°
2026-05-08 02:28 60.35899 -34.98549 34415 ft 448 kts 289°
2026-05-08 02:29 60.37698 -35.10637 34415 ft 449 kts 289°
2026-05-08 02:29 60.39486 -35.22732 34401 ft 449 kts 289°
2026-05-08 02:30 60.41263 -35.34847 34412 ft 449 kts 289°
2026-05-08 02:30 60.43029 -35.46975 34405 ft 449 kts 288°
2026-05-08 02:31 60.44785 -35.59117 34394 ft 449 kts 288°
2026-05-08 02:31 60.46529 -35.71272 34399 ft 449 kts 288°
2026-05-08 02:32 60.48251 -35.83359 34406 ft 448 kts 288°
2026-05-08 02:32 60.49969 -35.95507 34392 ft 448 kts 288°
2026-05-08 02:33 60.51674 -36.07658 34394 ft 448 kts 288°
2026-05-08 02:33 60.53369 -36.19831 34395 ft 447 kts 288°
2026-05-08 02:34 60.55050 -36.31993 34390 ft 447 kts 288°
2026-05-08 02:34 60.56718 -36.44146 34390 ft 446 kts 288°
2026-05-08 02:35 60.58376 -36.56327 34390 ft 446 kts 287°
2026-05-08 02:35 60.60018 -36.68482 34384 ft 445 kts 288°
2026-05-08 02:36 60.61649 -36.80652 34384 ft 445 kts 287°
2026-05-08 02:36 60.63257 -36.92743 34381 ft 445 kts 287°
2026-05-08 02:37 60.64864 -37.04917 34378 ft 445 kts 287°
2026-05-08 02:37 60.66461 -37.17117 34378 ft 445 kts 287°
2026-05-08 02:38 60.68048 -37.29333 34380 ft 445 kts 287°
2026-05-08 02:38 60.69622 -37.41551 34368 ft 445 kts 287°
2026-05-08 02:39 60.71179 -37.53731 34366 ft 445 kts 286°
2026-05-08 02:39 60.72734 -37.66002 34365 ft 446 kts 286°
2026-05-08 02:40 60.74278 -37.78275 34363 ft 446 kts 286°
2026-05-08 02:40 60.75813 -37.90583 34368 ft 446 kts 286°
2026-05-08 02:41 60.77326 -38.02817 34366 ft 447 kts 285°
2026-05-08 02:41 60.78841 -38.15176 34355 ft 447 kts 285°
2026-05-08 02:42 60.80347 -38.27556 34357 ft 448 kts 285°
2026-05-08 02:42 60.81841 -38.39949 34348 ft 448 kts 285°
2026-05-08 02:43 60.83324 -38.52354 34349 ft 448 kts 285°
2026-05-08 02:43 60.84799 -38.64798 34344 ft 449 kts 285°
2026-05-08 02:44 60.86260 -38.77240 34335 ft 449 kts 284°
2026-05-08 02:44 60.87712 -38.89707 34349 ft 449 kts 284°
2026-05-08 02:45 60.89142 -39.02099 34340 ft 449 kts 284°
2026-05-08 02:45 60.90571 -39.14584 34332 ft 449 kts 284°
2026-05-08 02:46 60.91986 -39.27069 34334 ft 448 kts 284°
2026-05-08 02:46 60.93392 -39.39582 34333 ft 448 kts 284°
2026-05-08 02:47 60.94784 -39.52089 34327 ft 448 kts 284°
2026-05-08 02:47 60.96164 -39.64603 34323 ft 448 kts 284°
2026-05-08 02:48 60.97531 -39.77111 34322 ft 448 kts 284°
2026-05-08 02:48 60.98881 -39.89562 34320 ft 448 kts 284°
2026-05-08 02:49 61.00266 -40.02067 34316 ft 447 kts 287°
2026-05-08 02:49 61.01963 -40.14407 34320 ft 447 kts 288°
2026-05-08 02:50 61.03706 -40.26716 34313 ft 446 kts 287°
2026-05-08 02:50 61.05426 -40.39026 34308 ft 446 kts 287°
2026-05-08 02:51 61.07121 -40.51352 34306 ft 446 kts 287°
2026-05-08 02:51 61.08800 -40.63705 34302 ft 446 kts 287°
2026-05-08 02:52 61.10457 -40.75992 34304 ft 446 kts 287°
2026-05-08 02:52 61.12113 -40.88371 34297 ft 446 kts 287°
2026-05-08 02:53 61.13757 -41.00752 34294 ft 446 kts 287°
2026-05-08 02:53 61.15391 -41.13161 34290 ft 446 kts 287°
2026-05-08 02:54 61.17014 -41.25578 34292 ft 446 kts 287°
2026-05-08 02:54 61.18624 -41.37999 34288 ft 446 kts 287°
2026-05-08 02:55 61.21010 -41.56592 34283 ft 446 kts 286°
2026-05-08 02:56 61.22591 -41.69040 34280 ft 446 kts 286°
2026-05-08 02:56 61.24160 -41.81498 34278 ft 446 kts 286°
2026-05-08 02:57 61.25716 -41.93952 34273 ft 445 kts 286°
2026-05-08 02:57 61.27259 -42.06402 34274 ft 445 kts 285°
2026-05-08 02:58 61.28791 -42.18871 34269 ft 444 kts 285°
2026-05-08 02:58 61.30301 -42.31272 34264 ft 444 kts 285°
2026-05-08 02:59 61.31810 -42.43760 34267 ft 444 kts 285°
2026-05-08 02:59 61.33310 -42.56285 34268 ft 444 kts 284°
2026-05-08 03:00 61.34783 -42.68692 34261 ft 444 kts 284°
2026-05-08 03:00 61.36254 -42.81192 34261 ft 444 kts 284°
2026-05-08 03:01 61.37715 -42.93714 34260 ft 445 kts 283°
2026-05-08 03:01 61.39166 -43.06259 34256 ft 445 kts 283°
2026-05-08 03:02 61.40606 -43.18824 34252 ft 445 kts 283°
2026-05-08 03:02 61.42038 -43.31427 34239 ft 446 kts 283°
2026-05-08 03:03 61.43217 -43.41895 34229 ft 446 kts 283°
2026-05-08 03:03 61.44626 -43.54509 34223 ft 445 kts 283°
2026-05-08 03:04 61.46249 -43.69182 34213 ft 445 kts 282°
2026-05-08 03:04 61.47400 -43.79688 34192 ft 445 kts 282°
2026-05-08 03:05 61.48774 -43.92330 34185 ft 445 kts 282°
2026-05-08 03:05 61.50135 -44.04981 34173 ft 445 kts 282°
2026-05-08 03:06 61.51482 -44.17620 34175 ft 444 kts 282°
2026-05-08 03:06 61.52819 -44.30273 34174 ft 445 kts 281°
2026-05-08 03:07 61.54142 -44.42927 34175 ft 444 kts 281°
2026-05-08 03:07 61.55445 -44.55510 34166 ft 444 kts 281°
2026-05-08 03:08 61.56744 -44.68177 34175 ft 443 kts 281°
2026-05-08 03:08 61.58028 -44.80826 34178 ft 443 kts 281°
2026-05-08 03:09 61.59302 -44.93495 34170 ft 443 kts 280°
2026-05-08 03:09 61.60564 -45.06176 34172 ft 444 kts 280°
2026-05-08 03:10 61.61815 -45.18878 34186 ft 444 kts 280°
2026-05-08 03:10 61.63055 -45.31589 34182 ft 444 kts 280°
2026-05-08 03:11 61.64285 -45.44337 34179 ft 444 kts 279°
2026-05-08 03:11 61.65494 -45.56996 34190 ft 444 kts 279°
2026-05-08 03:12 61.66699 -45.69745 34194 ft 444 kts 279°
2026-05-08 03:12 61.67893 -45.82518 34198 ft 444 kts 279°
2026-05-08 03:13 61.69076 -45.95306 34188 ft 445 kts 279°
2026-05-08 03:13 61.70248 -46.08111 34188 ft 445 kts 279°
2026-05-08 03:14 61.71401 -46.20847 34190 ft 445 kts 278°
2026-05-08 03:14 61.72547 -46.33653 34188 ft 444 kts 278°
2026-05-08 03:15 61.73682 -46.46486 34196 ft 444 kts 278°
2026-05-08 03:15 61.74803 -46.59297 34195 ft 444 kts 278°
2026-05-08 03:16 61.75914 -46.72132 34190 ft 444 kts 278°
2026-05-08 03:16 61.77010 -46.84949 34185 ft 444 kts 277°
2026-05-08 03:17 61.78087 -46.97698 34181 ft 444 kts 277°
2026-05-08 03:17 61.79162 -47.10560 34180 ft 444 kts 277°
2026-05-08 03:18 61.80223 -47.23423 34172 ft 445 kts 277°
2026-05-08 03:18 61.81275 -47.36329 34162 ft 445 kts 276°
2026-05-08 03:19 61.82317 -47.49259 34156 ft 446 kts 276°
2026-05-08 03:19 61.83347 -47.62206 34145 ft 446 kts 276°
2026-05-08 03:20 61.84366 -47.75173 34146 ft 447 kts 276°
2026-05-08 03:20 61.85374 -47.88163 34135 ft 447 kts 275°
2026-05-08 03:21 61.86365 -48.01104 34141 ft 447 kts 275°
2026-05-08 03:21 61.87351 -48.14151 34128 ft 447 kts 275°
2026-05-08 03:22 61.88322 -48.27178 34122 ft 447 kts 275°
2026-05-08 03:22 61.89282 -48.40200 34121 ft 447 kts 275°
2026-05-08 03:23 61.90229 -48.53247 34107 ft 448 kts 274°
2026-05-08 03:23 61.91164 -48.66315 34099 ft 448 kts 274°
2026-05-08 03:24 61.92087 -48.79383 34098 ft 448 kts 274°
2026-05-08 03:24 61.93000 -48.92475 34113 ft 448 kts 274°
2026-05-08 03:25 61.93893 -49.05499 34090 ft 449 kts 274°
2026-05-08 03:25 61.94782 -49.18630 34091 ft 449 kts 273°
2026-05-08 03:26 61.95659 -49.31803 34091 ft 450 kts 273°
2026-05-08 03:26 61.96525 -49.44974 34086 ft 450 kts 273°
2026-05-08 03:27 61.97379 -49.58168 34085 ft 450 kts 272°
2026-05-08 03:27 61.98220 -49.71362 34082 ft 450 kts 272°
2026-05-08 03:28 61.99045 -49.84499 34083 ft 450 kts 272°
2026-05-08 03:28 61.99861 -49.97693 34080 ft 450 kts 272°
2026-05-08 03:29 62.00895 -50.10872 34079 ft 452 kts 275°
2026-05-08 03:29 62.02063 -50.24010 34075 ft 452 kts 275°
2026-05-08 03:30 62.03792 -50.43756 34074 ft 452 kts 275°
2026-05-08 03:31 62.06012 -50.70123 34064 ft 452 kts 274°
2026-05-08 03:32 62.07641 -50.89929 34061 ft 452 kts 274°
2026-05-08 03:32 62.08713 -51.03161 34058 ft 452 kts 274°
2026-05-08 03:33 62.09765 -51.16305 34050 ft 452 kts 274°
2026-05-08 03:33 62.10813 -51.29567 34045 ft 452 kts 274°
2026-05-08 03:34 62.11848 -51.42827 34044 ft 453 kts 273°
2026-05-08 03:34 62.12871 -51.56127 34039 ft 453 kts 273°
2026-05-08 03:35 62.13877 -51.69356 34036 ft 453 kts 273°
2026-05-08 03:35 62.14876 -51.82677 34034 ft 453 kts 273°
2026-05-08 03:36 62.15860 -51.95990 34024 ft 453 kts 273°
2026-05-08 03:36 62.16834 -52.09335 34026 ft 453 kts 272°
2026-05-08 03:37 62.17795 -52.22691 34020 ft 453 kts 272°
2026-05-08 03:37 62.18736 -52.35957 34017 ft 453 kts 272°
2026-05-08 03:38 62.19671 -52.49322 34012 ft 453 kts 272°
2026-05-08 03:38 62.20593 -52.62693 34010 ft 453 kts 272°
2026-05-08 03:39 62.21500 -52.76044 34005 ft 453 kts 272°
2026-05-08 03:39 62.22396 -52.89442 33999 ft 454 kts 272°
2026-05-08 03:40 62.23280 -53.02846 34000 ft 454 kts 271°
2026-05-08 03:40 62.24151 -53.16268 34000 ft 454 kts 271°
2026-05-08 03:41 62.25010 -53.29704 33995 ft 454 kts 271°
2026-05-08 03:41 62.25851 -53.43064 33991 ft 455 kts 271°
2026-05-08 03:42 62.26686 -53.56543 33988 ft 455 kts 271°
2026-05-08 03:42 62.27507 -53.70029 33982 ft 455 kts 271°
2026-05-08 03:43 62.28315 -53.83507 33983 ft 455 kts 271°
2026-05-08 03:43 62.29109 -53.96991 33983 ft 455 kts 270°
2026-05-08 03:44 62.29887 -54.10407 33976 ft 455 kts 270°
2026-05-08 03:44 62.30655 -54.23906 33965 ft 455 kts 270°
2026-05-08 03:45 62.31410 -54.37404 33958 ft 455 kts 270°
2026-05-08 03:45 62.32152 -54.50916 33961 ft 455 kts 270°
2026-05-08 03:46 62.32882 -54.64449 33964 ft 455 kts 270°
2026-05-08 03:46 62.33599 -54.77991 33963 ft 455 kts 270°
2026-05-08 03:47 62.34299 -54.91476 33957 ft 456 kts 270°
2026-05-08 03:47 62.34989 -55.05033 33958 ft 457 kts 269°
2026-05-08 03:48 62.35670 -55.18663 33954 ft 457 kts 269°
2026-05-08 03:48 62.36337 -55.32297 33952 ft 458 kts 269°
2026-05-08 03:49 62.36992 -55.45940 33943 ft 458 kts 269°
2026-05-08 03:49 62.37634 -55.59613 33942 ft 459 kts 269°
2026-05-08 03:50 62.38263 -55.73303 33943 ft 459 kts 269°
2026-05-08 03:50 62.38880 -55.87042 33944 ft 460 kts 269°
2026-05-08 03:51 62.39481 -56.00717 33940 ft 461 kts 269°
2026-05-08 03:51 62.40072 -56.14484 33936 ft 462 kts 269°
2026-05-08 03:52 62.40651 -56.28281 33934 ft 462 kts 269°
2026-05-08 03:52 62.41124 -56.39806 33928 ft 463 kts 268°
2026-05-08 03:53 62.41680 -56.53678 33928 ft 464 kts 268°
2026-05-08 03:53 62.42222 -56.67564 33925 ft 465 kts 268°
2026-05-08 03:54 62.42752 -56.81469 33923 ft 465 kts 268°
2026-05-08 03:54 62.43270 -56.95428 33921 ft 466 kts 268°
2026-05-08 03:55 62.43774 -57.09393 33916 ft 466 kts 268°
2026-05-08 03:55 62.44263 -57.23358 33913 ft 466 kts 268°
2026-05-08 03:56 62.44736 -57.37238 33909 ft 467 kts 268°
2026-05-08 03:56 62.45199 -57.51254 33913 ft 467 kts 268°
2026-05-08 03:57 62.45647 -57.65254 33903 ft 468 kts 268°
2026-05-08 03:57 62.46084 -57.79295 33903 ft 468 kts 268°
2026-05-08 03:58 62.46508 -57.93351 33899 ft 469 kts 268°
2026-05-08 03:58 62.47515 -58.07320 33890 ft 479 kts 278°
2026-05-08 03:59 62.49288 -58.21260 33902 ft 481 kts 279°
2026-05-08 03:59 62.51078 -58.35226 33900 ft 482 kts 279°
2026-05-08 04:00 62.52826 -58.49232 33902 ft 482 kts 279°
2026-05-08 04:00 62.54546 -58.63305 33894 ft 483 kts 279°
2026-05-08 04:01 62.56243 -58.77368 33893 ft 483 kts 279°
2026-05-08 04:01 62.57921 -58.91398 33893 ft 483 kts 279°
2026-05-08 04:02 62.59599 -59.05555 33886 ft 483 kts 278°
2026-05-08 04:02 62.61262 -59.19720 33872 ft 483 kts 278°
2026-05-08 04:03 62.62907 -59.33863 33885 ft 482 kts 278°
2026-05-08 04:03 62.65339 -59.55033 33887 ft 482 kts 278°
2026-05-08 04:04 62.66949 -59.69225 33881 ft 483 kts 278°
2026-05-08 04:04 62.68544 -59.83429 33884 ft 483 kts 278°
2026-05-08 04:05 62.70128 -59.97676 33879 ft 484 kts 278°
2026-05-08 04:05 62.71687 -60.11845 33871 ft 484 kts 278°
2026-05-08 04:06 62.73240 -60.26104 33866 ft 484 kts 278°
2026-05-08 04:06 62.74784 -60.40418 33867 ft 484 kts 278°
2026-05-08 04:07 62.76312 -60.54742 33866 ft 484 kts 277°
2026-05-08 04:07 62.77823 -60.69062 33867 ft 484 kts 277°
2026-05-08 04:08 62.79321 -60.83403 33865 ft 484 kts 277°
2026-05-08 04:08 62.80805 -60.97772 33864 ft 484 kts 277°
2026-05-08 04:09 62.82273 -61.12140 33861 ft 484 kts 277°
2026-05-08 04:09 62.83724 -61.26507 33862 ft 483 kts 277°
2026-05-08 04:10 62.85153 -61.40799 33864 ft 483 kts 277°
2026-05-08 04:10 62.86574 -61.55183 33858 ft 483 kts 277°
2026-05-08 04:11 62.87982 -61.69584 33853 ft 483 kts 277°
2026-05-08 04:11 62.89374 -61.83998 33854 ft 483 kts 277°
2026-05-08 04:12 62.90753 -61.98441 33858 ft 483 kts 277°
2026-05-08 04:12 62.92117 -62.12899 33859 ft 484 kts 277°
2026-05-08 04:13 62.93462 -62.27313 33858 ft 484 kts 276°
2026-05-08 04:13 62.94800 -62.41837 33858 ft 485 kts 276°
2026-05-08 04:14 62.96126 -62.56399 33859 ft 486 kts 276°
2026-05-08 04:14 62.97437 -62.70978 33860 ft 486 kts 276°
2026-05-08 04:15 62.98737 -62.85577 33858 ft 487 kts 276°
2026-05-08 04:15 62.99734 -63.00163 33855 ft 482 kts 268°
2026-05-08 04:16 62.99551 -63.14779 33862 ft 476 kts 260°
2026-05-08 04:16 62.98955 -63.29325 33864 ft 477 kts 260°
2026-05-08 04:17 62.98361 -63.43860 33859 ft 478 kts 260°
2026-05-08 04:17 62.97778 -63.58459 33859 ft 479 kts 260°
2026-05-08 04:18 62.97191 -63.73079 33852 ft 480 kts 260°
2026-05-08 04:18 62.96593 -63.87602 33862 ft 480 kts 260°
2026-05-08 04:19 62.95975 -64.02222 33860 ft 480 kts 260°
2026-05-08 04:19 62.95339 -64.16882 33861 ft 481 kts 260°
2026-05-08 04:20 62.94688 -64.31515 33866 ft 481 kts 260°
2026-05-08 04:20 62.94021 -64.46176 33865 ft 482 kts 260°
2026-05-08 04:21 62.93344 -64.60719 33866 ft 483 kts 259°
2026-05-08 04:21 62.92645 -64.75397 33865 ft 483 kts 259°
2026-05-08 04:22 62.91931 -64.90077 33864 ft 484 kts 259°
2026-05-08 04:22 62.91200 -65.04761 33859 ft 485 kts 259°
2026-05-08 04:23 62.90452 -65.19483 33856 ft 485 kts 259°
2026-05-08 04:23 62.89689 -65.34192 33856 ft 486 kts 259°
2026-05-08 04:24 62.88907 -65.48967 33840 ft 487 kts 259°
2026-05-08 04:24 62.88111 -65.63709 33839 ft 487 kts 259°
2026-05-08 04:25 62.87303 -65.78363 33843 ft 487 kts 259°
2026-05-08 04:25 62.86475 -65.93110 33835 ft 488 kts 259°
2026-05-08 04:26 62.85631 -66.07864 33837 ft 488 kts 259°
2026-05-08 04:26 62.84769 -66.22650 33837 ft 489 kts 259°
2026-05-08 04:27 62.83891 -66.37432 33838 ft 489 kts 259°
2026-05-08 04:27 62.82998 -66.52198 33840 ft 490 kts 259°
2026-05-08 04:28 62.82087 -66.66999 33837 ft 491 kts 258°
2026-05-08 04:28 62.81168 -66.81701 33838 ft 491 kts 258°
2026-05-08 04:29 62.80233 -66.96516 33834 ft 492 kts 260°
2026-05-08 04:29 62.79964 -67.11523 33803 ft 495 kts 266°
2026-05-08 04:30 62.80027 -67.18940 33809 ft 482 kts 267°
2026-05-08 04:30 62.80098 -67.26190 33817 ft 473 kts 266°
2026-05-08 04:30 62.80206 -67.40584 33833 ft 475 kts 266°
2026-05-08 04:31 62.80267 -67.55094 33840 ft 479 kts 266°
2026-05-08 04:31 62.80302 -67.69632 33832 ft 482 kts 266°
2026-05-08 04:32 62.80321 -67.84333 33829 ft 484 kts 266°
2026-05-08 04:32 62.80327 -67.99029 33827 ft 484 kts 266°
2026-05-08 04:33 62.80318 -68.13750 33835 ft 483 kts 266°
2026-05-08 04:33 62.80294 -68.28419 33819 ft 482 kts 266°
2026-05-08 04:34 62.80254 -68.43048 33828 ft 481 kts 265°
2026-05-08 04:34 62.80199 -68.57594 33826 ft 481 kts 265°
2026-05-08 04:35 62.80129 -68.72202 33822 ft 481 kts 265°
2026-05-08 04:35 62.80042 -68.86824 33826 ft 482 kts 265°
2026-05-08 04:36 62.79941 -69.01490 33819 ft 482 kts 265°
2026-05-08 04:36 62.79846 -69.13450 33825 ft 483 kts 265°
2026-05-08 04:37 62.79719 -69.28128 33816 ft 484 kts 265°
2026-05-08 04:37 62.79586 -69.41843 33817 ft 485 kts 265°
2026-05-08 04:38 62.79427 -69.56569 33814 ft 485 kts 265°
2026-05-08 04:38 62.79252 -69.71324 33807 ft 486 kts 265°
2026-05-08 04:39 62.79063 -69.86007 33802 ft 486 kts 265°
2026-05-08 04:39 62.78857 -70.00775 33801 ft 487 kts 265°
2026-05-08 04:40 62.78674 -70.13096 33802 ft 487 kts 265°
2026-05-08 04:40 62.78440 -70.27886 33791 ft 487 kts 265°
2026-05-08 04:41 62.78189 -70.42690 33795 ft 487 kts 264°
2026-05-08 04:41 62.77923 -70.57494 33793 ft 487 kts 264°
2026-05-08 04:42 62.77642 -70.72274 33795 ft 488 kts 264°
2026-05-08 04:42 62.77345 -70.87087 33772 ft 488 kts 264°
2026-05-08 04:43 62.77033 -71.01890 33774 ft 488 kts 264°
2026-05-08 04:43 62.76704 -71.16697 33768 ft 488 kts 264°
2026-05-08 04:44 62.76362 -71.31406 33768 ft 488 kts 264°
2026-05-08 04:44 62.76003 -71.46189 33763 ft 488 kts 264°
2026-05-08 04:45 62.75628 -71.60989 33757 ft 488 kts 264°
2026-05-08 04:45 62.75238 -71.75768 33754 ft 488 kts 264°
2026-05-08 04:46 62.74831 -71.90562 33748 ft 488 kts 264°
2026-05-08 04:46 62.74409 -72.05366 33744 ft 488 kts 263°
2026-05-08 04:47 62.73975 -72.20070 33741 ft 488 kts 263°
2026-05-08 04:47 62.73521 -72.34880 33735 ft 488 kts 263°
2026-05-08 04:48 62.73052 -72.49669 33733 ft 488 kts 263°
2026-05-08 04:48 62.72571 -72.64346 33732 ft 488 kts 263°
2026-05-08 04:49 62.72072 -72.79103 33728 ft 488 kts 263°
2026-05-08 04:49 62.71557 -72.93866 33721 ft 488 kts 263°
2026-05-08 04:50 62.71028 -73.08611 33718 ft 488 kts 263°
2026-05-08 04:50 62.70482 -73.23372 33717 ft 488 kts 263°
2026-05-08 04:51 62.69920 -73.38141 33717 ft 489 kts 263°
2026-05-08 04:51 62.69343 -73.52888 33712 ft 489 kts 263°
2026-05-08 04:52 62.68750 -73.67646 33709 ft 489 kts 263°
2026-05-08 04:52 62.68141 -73.82387 33709 ft 489 kts 262°
2026-05-08 04:53 62.67517 -73.97150 33701 ft 490 kts 262°
2026-05-08 04:53 62.66876 -74.11928 33697 ft 490 kts 262°
2026-05-08 04:54 62.66223 -74.26617 33698 ft 491 kts 262°
2026-05-08 04:54 62.65547 -74.41437 33694 ft 492 kts 262°
2026-05-08 04:55 62.64858 -74.56234 33691 ft 492 kts 262°
2026-05-08 04:55 62.64151 -74.71057 33688 ft 493 kts 262°
2026-05-08 04:56 62.63432 -74.85816 33687 ft 493 kts 262°
2026-05-08 04:56 62.62693 -75.00637 33688 ft 494 kts 262°
2026-05-08 04:57 62.61937 -75.15476 33679 ft 494 kts 262°
2026-05-08 04:57 62.61166 -75.30305 33679 ft 494 kts 262°
2026-05-08 04:58 62.60378 -75.45147 33672 ft 495 kts 262°
2026-05-08 04:58 62.59573 -75.60010 33674 ft 495 kts 261°
2026-05-08 04:59 62.58754 -75.74835 33671 ft 495 kts 261°
2026-05-08 04:59 62.57918 -75.89659 33665 ft 495 kts 261°
2026-05-08 05:00 62.57066 -76.04492 33659 ft 495 kts 261°
2026-05-08 05:00 62.56205 -76.19215 33656 ft 495 kts 261°
2026-05-08 05:01 62.55322 -76.34016 33652 ft 495 kts 261°
2026-05-08 05:01 62.54424 -76.48815 33643 ft 495 kts 261°
2026-05-08 05:02 62.53510 -76.63604 33645 ft 495 kts 261°
2026-05-08 05:02 62.52581 -76.78370 33641 ft 495 kts 261°
2026-05-08 05:03 62.51636 -76.93141 33646 ft 495 kts 260°
2026-05-08 05:03 62.50675 -77.07906 33625 ft 495 kts 260°
2026-05-08 05:04 62.49697 -77.22668 33643 ft 495 kts 260°
2026-05-08 05:04 62.48710 -77.37336 33627 ft 496 kts 260°
2026-05-08 05:05 62.47701 -77.52099 33624 ft 496 kts 259°
2026-05-08 05:05 62.46676 -77.66846 33624 ft 496 kts 259°
2026-05-08 05:06 62.45636 -77.81592 33614 ft 496 kts 259°
2026-05-08 05:06 62.44579 -77.96343 33619 ft 497 kts 259°
2026-05-08 05:07 62.43506 -78.11067 33616 ft 497 kts 259°
2026-05-08 05:07 62.42421 -78.25739 33604 ft 497 kts 259°
2026-05-08 05:08 62.41317 -78.40464 33609 ft 497 kts 259°
2026-05-08 05:08 62.40198 -78.55181 33595 ft 498 kts 259°
2026-05-08 05:09 62.39058 -78.69938 33595 ft 498 kts 258°
2026-05-08 05:09 62.38102 -78.82141 33588 ft 498 kts 258°
2026-05-08 05:10 62.36434 -79.03127 33579 ft 499 kts 258°
2026-05-08 05:11 62.35243 -79.17857 33576 ft 499 kts 258°
2026-05-08 05:11 62.34037 -79.32574 33574 ft 500 kts 258°
2026-05-08 05:12 62.32811 -79.47326 33564 ft 500 kts 258°
2026-05-08 05:12 62.31573 -79.62023 33565 ft 499 kts 258°
2026-05-08 05:13 62.30319 -79.76726 33553 ft 499 kts 258°
2026-05-08 05:13 62.29061 -79.91306 33552 ft 499 kts 258°
2026-05-08 05:14 62.28249 -80.06090 33542 ft 500 kts 268°
2026-05-08 05:14 62.28356 -80.21028 33542 ft 499 kts 270°
2026-05-08 05:15 62.28500 -80.35959 33535 ft 500 kts 270°
2026-05-08 05:15 62.28596 -80.50885 33530 ft 500 kts 269°
2026-05-08 05:16 62.28655 -80.65844 33527 ft 500 kts 269°
2026-05-08 05:16 62.28690 -80.80714 33524 ft 501 kts 269°
2026-05-08 05:17 62.28710 -80.95693 33517 ft 502 kts 269°
2026-05-08 05:17 62.28717 -81.10719 33512 ft 503 kts 269°
2026-05-08 05:18 62.28707 -81.25751 33507 ft 503 kts 269°
2026-05-08 05:18 62.28681 -81.40795 33501 ft 503 kts 269°
2026-05-08 05:19 62.28639 -81.55843 33496 ft 504 kts 269°
2026-05-08 05:19 62.28580 -81.70923 33493 ft 504 kts 269°
2026-05-08 05:20 62.28506 -81.85868 33490 ft 504 kts 269°
2026-05-08 05:20 62.28414 -82.01015 33486 ft 504 kts 269°
2026-05-08 05:21 62.28308 -82.15968 33483 ft 503 kts 269°
2026-05-08 05:21 62.28184 -82.31000 33478 ft 503 kts 269°
2026-05-08 05:22 62.28045 -82.46033 33479 ft 503 kts 268°
2026-05-08 05:22 62.27889 -82.61057 33469 ft 502 kts 268°
2026-05-08 05:23 62.27717 -82.76038 33464 ft 502 kts 268°
2026-05-08 05:23 62.27530 -82.90960 33464 ft 502 kts 268°
2026-05-08 05:24 62.27326 -83.05966 33457 ft 502 kts 268°
2026-05-08 05:24 62.27105 -83.20976 33458 ft 503 kts 268°
2026-05-08 05:25 62.26869 -83.35991 33454 ft 503 kts 268°
2026-05-08 05:25 62.26616 -83.51007 33453 ft 503 kts 268°
2026-05-08 05:26 62.26346 -83.66041 33448 ft 504 kts 268°
2026-05-08 05:26 62.26062 -83.80991 33446 ft 504 kts 268°
2026-05-08 05:27 62.25759 -83.96033 33446 ft 504 kts 267°
2026-05-08 05:27 62.25440 -84.11093 33447 ft 505 kts 267°
2026-05-08 05:28 62.25163 -84.23596 33443 ft 505 kts 267°
2026-05-08 05:28 62.24814 -84.38655 33441 ft 505 kts 267°
2026-05-08 05:29 62.24449 -84.53701 33441 ft 505 kts 267°
2026-05-08 05:29 62.24067 -84.68765 33447 ft 505 kts 267°
2026-05-08 05:30 62.23669 -84.83812 33445 ft 505 kts 267°
2026-05-08 05:30 62.23255 -84.98861 33447 ft 505 kts 267°
2026-05-08 05:31 62.22827 -85.13825 33447 ft 506 kts 266°
2026-05-08 05:31 62.22379 -85.28881 33447 ft 506 kts 266°
2026-05-08 05:32 62.21916 -85.43923 33447 ft 506 kts 266°
2026-05-08 05:32 62.21436 -85.58973 33447 ft 506 kts 266°
2026-05-08 05:33 62.20939 -85.74049 33452 ft 506 kts 266°
2026-05-08 05:33 62.20425 -85.89114 33449 ft 506 kts 266°
2026-05-08 05:34 62.19896 -86.04157 33451 ft 507 kts 266°
2026-05-08 05:34 62.19353 -86.19123 33450 ft 507 kts 266°
2026-05-08 05:35 62.18790 -86.34186 33456 ft 507 kts 266°
2026-05-08 05:35 62.18211 -86.49233 33457 ft 507 kts 266°
2026-05-08 05:36 62.17616 -86.64279 33458 ft 507 kts 266°
2026-05-08 05:36 62.17004 -86.79333 33463 ft 507 kts 266°
2026-05-08 05:37 62.16375 -86.94382 33461 ft 507 kts 265°
2026-05-08 05:37 62.15735 -87.09316 33468 ft 507 kts 265°
2026-05-08 05:38 62.15075 -87.24339 33471 ft 507 kts 265°
2026-05-08 05:38 62.14398 -87.39364 33472 ft 507 kts 265°
2026-05-08 05:39 62.13704 -87.54396 33475 ft 507 kts 265°
2026-05-08 05:39 62.12995 -87.69395 33475 ft 508 kts 265°
2026-05-08 05:40 62.12268 -87.84410 33482 ft 508 kts 265°
2026-05-08 05:40 62.11525 -87.99428 33482 ft 508 kts 265°
2026-05-08 05:41 62.10767 -88.14406 33490 ft 508 kts 265°
2026-05-08 05:41 62.09997 -88.29306 33488 ft 507 kts 264°
2026-05-08 05:42 62.09206 -88.44280 33493 ft 508 kts 264°
2026-05-08 05:42 62.08399 -88.59261 33494 ft 508 kts 264°
2026-05-08 05:43 62.07575 -88.74228 33501 ft 508 kts 264°
2026-05-08 05:43 62.06736 -88.89182 33505 ft 508 kts 264°
2026-05-08 05:44 62.05880 -89.04131 33500 ft 508 kts 264°
2026-05-08 05:44 62.05008 -89.19077 33507 ft 508 kts 264°
2026-05-08 05:45 62.04125 -89.33933 33505 ft 508 kts 264°
2026-05-08 05:45 62.03222 -89.48845 33507 ft 508 kts 264°
2026-05-08 05:46 62.02301 -89.63774 33523 ft 508 kts 264°
2026-05-08 05:46 62.01365 -89.78693 33515 ft 508 kts 263°
2026-05-08 05:47 62.00415 -89.93595 33525 ft 508 kts 263°
2026-05-08 05:47 61.99382 -90.08464 33526 ft 508 kts 261°
2026-05-08 05:48 61.98095 -90.23230 33523 ft 508 kts 260°
2026-05-08 05:48 61.96750 -90.37988 33534 ft 508 kts 260°
2026-05-08 05:49 61.95430 -90.52668 33542 ft 508 kts 261°
2026-05-08 05:49 61.94112 -90.67416 33542 ft 508 kts 261°
2026-05-08 05:50 61.92786 -90.82139 33542 ft 508 kts 260°
2026-05-08 05:50 61.91441 -90.96864 33551 ft 508 kts 260°
2026-05-08 05:51 61.90080 -91.11564 33549 ft 508 kts 260°
2026-05-08 05:51 61.88700 -91.26267 33555 ft 508 kts 260°
2026-05-08 05:52 61.87308 -91.40934 33560 ft 508 kts 260°
2026-05-08 05:52 61.85899 -91.55593 33562 ft 507 kts 260°
2026-05-08 05:53 61.84474 -91.70242 33565 ft 507 kts 260°
2026-05-08 05:53 61.83037 -91.84847 33572 ft 507 kts 260°
2026-05-08 05:54 61.81582 -91.99463 33571 ft 507 kts 259°
2026-05-08 05:54 61.80113 -92.14054 33581 ft 507 kts 259°
2026-05-08 05:55 61.78636 -92.28555 33579 ft 507 kts 259°
2026-05-08 05:55 61.77136 -92.43113 33589 ft 507 kts 259°
2026-05-08 05:56 61.75620 -92.57667 33585 ft 507 kts 259°
2026-05-08 05:56 61.74088 -92.72209 33589 ft 507 kts 259°
2026-05-08 05:57 61.72540 -92.86737 33597 ft 507 kts 259°
2026-05-08 05:57 61.70980 -93.01229 33598 ft 507 kts 259°
2026-05-08 05:58 61.69404 -93.15713 33598 ft 507 kts 259°
2026-05-08 05:58 61.67813 -93.30175 33607 ft 507 kts 259°
2026-05-08 05:59 61.66218 -93.44519 33612 ft 507 kts 259°
2026-05-08 05:59 61.64596 -93.58959 33614 ft 506 kts 258°
2026-05-08 06:00 61.62959 -93.73381 33620 ft 506 kts 258°
2026-05-08 06:00 61.61312 -93.87749 33625 ft 506 kts 258°
2026-05-08 06:01 61.59645 -94.02134 33629 ft 506 kts 258°
2026-05-08 06:01 61.57968 -94.16467 33631 ft 506 kts 258°
2026-05-08 06:02 61.56273 -94.30802 33633 ft 506 kts 258°
2026-05-08 06:02 61.54566 -94.45103 33635 ft 505 kts 258°
2026-05-08 06:03 61.52844 -94.59386 33645 ft 505 kts 258°
2026-05-08 06:03 61.51107 -94.73657 33654 ft 505 kts 258°
2026-05-08 06:04 61.49368 -94.87806 33651 ft 505 kts 258°
2026-05-08 06:04 61.47604 -95.02021 33657 ft 504 kts 257°
2026-05-08 06:05 61.45827 -95.16209 33664 ft 503 kts 257°
2026-05-08 06:05 61.44038 -95.30353 33668 ft 503 kts 257°
2026-05-08 06:06 61.42237 -95.44465 33676 ft 502 kts 257°
2026-05-08 06:06 61.40422 -95.58559 33677 ft 502 kts 257°
2026-05-08 06:07 61.38609 -95.72501 33683 ft 501 kts 257°
2026-05-08 06:07 61.36770 -95.86521 33685 ft 501 kts 257°
2026-05-08 06:08 61.34919 -96.00507 33690 ft 500 kts 257°
2026-05-08 06:08 61.33056 -96.14463 33692 ft 500 kts 257°
2026-05-08 06:09 61.31180 -96.28381 33700 ft 499 kts 257°
2026-05-08 06:09 61.29288 -96.42305 33709 ft 499 kts 257°
2026-05-08 06:10 61.27387 -96.56172 33714 ft 498 kts 257°
2026-05-08 06:10 61.25472 -96.70017 33729 ft 498 kts 257°
2026-05-08 06:11 61.23547 -96.83821 33725 ft 497 kts 256°
2026-05-08 06:11 61.21613 -96.97573 33742 ft 496 kts 256°
2026-05-08 06:12 61.19678 -97.11214 33740 ft 495 kts 256°
2026-05-08 06:12 61.17722 -97.24888 33746 ft 495 kts 256°
2026-05-08 06:13 61.15751 -97.38561 33756 ft 494 kts 256°
2026-05-08 06:13 61.13771 -97.52183 33762 ft 494 kts 256°
2026-05-08 06:14 61.11774 -97.65805 33772 ft 494 kts 256°
2026-05-08 06:14 61.10100 -97.77139 33777 ft 495 kts 256°
2026-05-08 06:15 61.08080 -97.90721 33784 ft 495 kts 256°
2026-05-08 06:15 61.06085 -98.04022 33790 ft 495 kts 256°
2026-05-08 06:16 61.04042 -98.17539 33800 ft 496 kts 256°
2026-05-08 06:16 61.01974 -98.31118 33804 ft 496 kts 256°
2026-05-08 06:17 61.00045 -98.43686 33812 ft 496 kts 256°
2026-05-08 06:17 60.97968 -98.57117 33824 ft 497 kts 255°
2026-05-08 06:18 60.95856 -98.70670 33829 ft 497 kts 255°
2026-05-08 06:18 60.93733 -98.84186 33849 ft 497 kts 255°
2026-05-08 06:19 60.91593 -98.97703 33844 ft 496 kts 255°
2026-05-08 06:19 60.89457 -99.11095 33853 ft 496 kts 255°
2026-05-08 06:20 60.87294 -99.24561 33863 ft 496 kts 255°
2026-05-08 06:20 60.85116 -99.38007 33874 ft 495 kts 255°
2026-05-08 06:21 60.82931 -99.51404 33880 ft 495 kts 255°
2026-05-08 06:21 60.80734 -99.64774 33891 ft 495 kts 254°
2026-05-08 06:22 60.78526 -99.78106 33889 ft 494 kts 254°
2026-05-08 06:22 60.76305 -99.91423 33897 ft 494 kts 254°
2026-05-08 06:23 60.74074 -100.04707 33905 ft 493 kts 254°
2026-05-08 06:23 60.71829 -100.17967 33917 ft 493 kts 254°
2026-05-08 06:24 60.69594 -100.31082 33923 ft 492 kts 254°
2026-05-08 06:24 60.67330 -100.44272 33931 ft 492 kts 254°
2026-05-08 06:25 60.65052 -100.57442 33930 ft 491 kts 253°
2026-05-08 06:25 60.62770 -100.70549 33936 ft 491 kts 253°
2026-05-08 06:26 60.60475 -100.83634 33941 ft 490 kts 253°
2026-05-08 06:26 60.58171 -100.96688 33944 ft 489 kts 253°
2026-05-08 06:27 60.55856 -101.09710 33951 ft 489 kts 253°
2026-05-08 06:27 60.53532 -101.22686 33950 ft 488 kts 253°
2026-05-08 06:28 60.51214 -101.35547 33952 ft 488 kts 253°
2026-05-08 06:28 60.48869 -101.48472 33961 ft 488 kts 253°
2026-05-08 06:29 60.46512 -101.61370 33956 ft 487 kts 253°
2026-05-08 06:29 60.44143 -101.74253 33959 ft 487 kts 253°
2026-05-08 06:30 60.41762 -101.87107 33964 ft 487 kts 253°
2026-05-08 06:30 60.39373 -101.99924 33959 ft 487 kts 253°
2026-05-08 06:31 60.36986 -102.12651 33956 ft 487 kts 253°
2026-05-08 06:31 60.34571 -102.25438 33964 ft 487 kts 252°
2026-05-08 06:32 60.32144 -102.38200 33958 ft 487 kts 252°
2026-05-08 06:32 60.29708 -102.50936 33964 ft 487 kts 252°
2026-05-08 06:33 60.27259 -102.63652 33965 ft 487 kts 252°
2026-05-08 06:33 60.24808 -102.76292 33962 ft 487 kts 252°
2026-05-08 06:34 60.22337 -102.88960 33955 ft 487 kts 252°
2026-05-08 06:34 60.19849 -103.01633 33976 ft 486 kts 252°
2026-05-08 06:35 60.17353 -103.14269 33972 ft 486 kts 252°
2026-05-08 06:35 60.14845 -103.26883 33978 ft 486 kts 252°
2026-05-08 06:36 60.12332 -103.39444 33985 ft 485 kts 252°
2026-05-08 06:36 60.09826 -103.51895 33984 ft 484 kts 252°
2026-05-08 06:37 60.07295 -103.64389 33989 ft 484 kts 252°
2026-05-08 06:37 60.04751 -103.76878 33989 ft 483 kts 252°
2026-05-08 06:38 60.02199 -103.89335 33995 ft 483 kts 251°
2026-05-08 06:38 59.99600 -104.01708 33992 ft 484 kts 248°
2026-05-08 06:39 59.96554 -104.13639 33984 ft 485 kts 246°
2026-05-08 06:39 59.93422 -104.25555 33990 ft 485 kts 246°
2026-05-08 06:40 59.90293 -104.37477 33991 ft 484 kts 246°
2026-05-08 06:40 59.87173 -104.49380 33991 ft 484 kts 246°
2026-05-08 06:41 59.84070 -104.61182 33997 ft 484 kts 246°
2026-05-08 06:41 59.80932 -104.73057 33996 ft 484 kts 246°
2026-05-08 06:42 59.77789 -104.84880 33996 ft 484 kts 246°
2026-05-08 06:42 59.74645 -104.96647 33995 ft 484 kts 245°
2026-05-08 06:43 59.71483 -105.08421 33987 ft 484 kts 245°
2026-05-08 06:43 59.68290 -105.20244 34000 ft 484 kts 245°
2026-05-08 06:44 59.65129 -105.31891 33991 ft 483 kts 245°
2026-05-08 06:44 59.61937 -105.43588 33990 ft 483 kts 244°
2026-05-08 06:45 59.58738 -105.55254 33990 ft 483 kts 244°
2026-05-08 06:45 59.55529 -105.66893 33985 ft 482 kts 244°
2026-05-08 06:46 59.52321 -105.78470 33978 ft 481 kts 244°
2026-05-08 06:46 59.49108 -105.90010 33971 ft 480 kts 244°
2026-05-08 06:47 59.45884 -106.01528 33972 ft 479 kts 243°
2026-05-08 06:47 59.42658 -106.12996 33980 ft 478 kts 243°
2026-05-08 06:48 59.39429 -106.24418 33984 ft 478 kts 243°
2026-05-08 06:48 59.36214 -106.35731 33983 ft 477 kts 243°
2026-05-08 06:49 59.32970 -106.47090 33998 ft 476 kts 243°
2026-05-08 06:49 59.29729 -106.58388 34007 ft 475 kts 243°
2026-05-08 06:50 59.26501 -106.69581 34004 ft 475 kts 243°
2026-05-08 06:50 59.23250 -106.80802 34005 ft 474 kts 243°
2026-05-08 06:51 59.19990 -106.91996 33997 ft 474 kts 243°
2026-05-08 06:51 59.16723 -107.03164 34001 ft 473 kts 242°
2026-05-08 06:52 59.13452 -107.14289 33997 ft 473 kts 242°
2026-05-08 06:52 59.10169 -107.25399 33999 ft 473 kts 242°
2026-05-08 06:53 59.06883 -107.36471 33998 ft 472 kts 242°
2026-05-08 06:53 59.03611 -107.47439 33995 ft 472 kts 242°
2026-05-08 06:54 59.00304 -107.58473 33992 ft 472 kts 242°
2026-05-08 06:54 58.96988 -107.69484 33993 ft 472 kts 242°
2026-05-08 06:55 58.93695 -107.80370 33995 ft 472 kts 242°
2026-05-08 06:55 58.90339 -107.91410 33990 ft 472 kts 242°
2026-05-08 06:56 58.86991 -108.02374 33992 ft 472 kts 242°
2026-05-08 06:56 58.83682 -108.13156 33994 ft 472 kts 242°
2026-05-08 06:57 58.80304 -108.24115 33997 ft 472 kts 242°
2026-05-08 06:57 58.76939 -108.34979 33994 ft 472 kts 242°
2026-05-08 06:58 58.73559 -108.45841 33990 ft 472 kts 242°
2026-05-08 06:58 58.70175 -108.56667 33988 ft 471 kts 242°
2026-05-08 06:59 58.66809 -108.67385 33990 ft 471 kts 242°
2026-05-08 06:59 58.63420 -108.78126 33988 ft 470 kts 242°
2026-05-08 07:00 58.60024 -108.88839 33982 ft 470 kts 242°
2026-05-08 07:00 58.56623 -108.99522 33982 ft 469 kts 242°
2026-05-08 07:01 58.53220 -109.10160 33982 ft 468 kts 242°
2026-05-08 07:01 58.49815 -109.20759 33972 ft 467 kts 242°
2026-05-08 07:02 58.46430 -109.31249 33963 ft 466 kts 242°
2026-05-08 07:02 58.43002 -109.41821 33970 ft 465 kts 242°
2026-05-08 07:03 58.39614 -109.52227 33962 ft 464 kts 242°
2026-05-08 07:03 58.36758 -109.60964 33959 ft 464 kts 242°
2026-05-08 07:04 58.33336 -109.71388 33966 ft 463 kts 242°
2026-05-08 07:04 58.29937 -109.81697 33958 ft 462 kts 242°
2026-05-08 07:05 58.26513 -109.92036 33960 ft 462 kts 242°
2026-05-08 07:05 58.23076 -110.02369 33952 ft 461 kts 242°
2026-05-08 07:06 58.19646 -110.12639 33956 ft 461 kts 242°
2026-05-08 07:06 58.16199 -110.22911 33957 ft 460 kts 242°
2026-05-08 07:07 58.12780 -110.33060 33949 ft 460 kts 242°
2026-05-08 07:07 58.09327 -110.43263 33951 ft 460 kts 242°